Flag for France Weather past 2 weeks in Paris, France

Now
37 °F

Clear.


Feels Like: 35 °F
Forecast: 30 / 52 °F
Wind: 3 mph from North

Location: Villacoublay

Current Time: Mar 6, 2015 at 12:09:34 AM

Latest Report: Mar 6, 2015 at 12:00 AM


Visibility: N/A

Pressure: 30.66 "Hg

Humidity: 75%

Dew point: 30 °F

Location of ParisLocation

Historic Weather in Paris — Graph

°F

Paris temperature yesterday

Maximum temperature yesterday: 50 °F (at 2:00 PM)
Minimum temperature yesterday: 34 °F (at 6:00 AM)
Average temperature yesterday: 42 °F

Past Weeks' High & Low Weather Summary

 TemperatureHumidityPressure
High52 °F (Feb 23, 1:00 PM)100% (Feb 21, 6:30 AM)30.72 "Hg (Feb 21, 6:30 AM)
Low30 °F (Feb 22, 6:00 AM)40% (Mar 5, 3:30 PM)29.42 "Hg (Feb 23, 5:30 AM)
Average42 °F80%30.00 "Hg
* Reported Feb 18 11:00 PM — Mar 5 11:00 PM, Paris, Weather by CustomWeather, © 2015

Note: Actual official high and low records may vary slightly from our data, if they occured in-between our weather recording intervals... More about our weather records

Advertising

Paris weather history for previous 24 hours

 ConditionsComfort  
Time TempWeatherWind HumidityBarometerVisibility
11:00 PM
Thu, Mar 5
41 °FClear.2 mph70%30.69 "HgN/A
10:30 PM41 °FClear.5 mph70%30.69 "HgN/A
10:00 PM41 °FClear.6 mph70%30.69 "HgN/A
9:30 PM43 °FClear.5 mph66%30.69 "HgN/A
9:00 PM43 °FClear.3 mph66%30.69 "HgN/A
8:30 PM45 °FClear.3 mph61%30.69 "HgN/A
8:00 PM45 °FClear.3 mph57%30.69 "HgN/A
7:30 PM45 °FClear.3 mph57%30.69 "HgN/A
7:00 PM46 °FClear.5 mph53%30.66 "HgN/A
6:30 PM48 °FClear.8 mph50%30.66 "HgN/A
6:00 PM48 °FScattered clouds.9 mph50%30.66 "HgN/A
5:30 PM50 °FClear.7 mph47%30.66 "HgN/A
5:00 PM50 °FPassing clouds.10 mph43%30.66 "HgN/A
4:30 PM50 °FScattered clouds.7 mph47%30.66 "HgN/A
4:00 PM50 °FPassing clouds.6 mph47%30.66 "HgN/A
3:30 PM50 °FPassing clouds.9 mph40%30.66 "HgN/A
3:00 PM50 °FPassing clouds.7 mph50%30.66 "HgN/A
2:30 PM50 °FClear.6 mph43%30.66 "HgN/A
2:00 PM50 °FPassing clouds.5 mph50%30.69 "HgN/A
1:30 PM48 °FClear.7 mph54%30.69 "HgN/A
1:00 PM48 °FClear.7 mph54%30.69 "HgN/A
12:30 PM46 °FPassing clouds.9 mph57%30.72 "HgN/A
12:00 PM46 °FPassing clouds.6 mph57%30.72 "HgN/A
11:30 AM46 °FClear.6 mph66%30.72 "HgN/A
11:00 AM45 °FClear.6 mph71%30.72 "HgN/A
10:30 AM43 °FClear.6 mph76%30.72 "HgN/A
10:00 AM41 °FClear.8 mph81%30.72 "HgN/A
9:30 AM39 °FClear.7 mph87%30.72 "HgN/A
9:00 AM37 °FClear.6 mph87%30.72 "HgN/A
8:30 AM36 °FClear.6 mph93%30.72 "HgN/A
8:00 AM36 °FClear.5 mph87%30.69 "HgN/A
7:30 AM36 °FClear.6 mph87%30.69 "HgN/A
7:00 AM34 °FClear.6 mph93%30.69 "HgN/A
6:30 AM34 °FClear.6 mph93%30.69 "HgN/A
6:00 AM34 °FClear.5 mph87%30.69 "HgN/A
5:30 AM36 °FClear.6 mph87%30.69 "HgN/A
4:30 AM36 °FClear.7 mph87%30.66 "HgN/A
4:00 AM36 °FClear.6 mph87%30.66 "HgN/A
3:00 AM36 °FClear.6 mph87%30.66 "HgN/A
2:30 AM36 °FClear.6 mph87%30.66 "HgN/A
2:00 AM36 °FClear.7 mph93%30.66 "HgN/A
1:30 AM36 °FClear.8 mph87%30.63 "HgN/A
1:00 AM36 °FClear.8 mph87%30.63 "HgN/A
12:30 AM37 °FClear.9 mph81%30.63 "HgN/A
12:00 AM37 °FClear.7 mph81%30.63 "HgN/A
Weather by CustomWeather, © 2015

See weather overviewHow to use our weather pages